CDT,Max TemperatureF,Mean TemperatureF,Min TemperatureF,Max Dew PointF,MeanDew PointF,Min DewpointF,Max Humidity, Mean Humidity, Min Humidity, Max Sea Level PressureIn, Mean Sea Level PressureIn, Min Sea Level PressureIn, Max VisibilityMiles, Mean VisibilityMiles, Min VisibilityMiles, Max Wind SpeedMPH, Mean Wind SpeedMPH, Max Gust SpeedMPH,PrecipitationIn, CloudCover, Events, WindDirDegrees
2011-10-1,94,82,71,71,65,60,84,61,33,30.11,30.05,30.01,10,10,10,18,6,25,0.00,2,,64
2011-10-2,91,78,64,63,57,50,84,54,25,30.17,30.12,30.09,10,10,10,15,5,23,0.00,0,,75
2011-10-3,91,76,62,59,54,42,80,51,18,30.19,30.13,30.08,10,10,10,15,4,20,0.00,0,,83
2011-10-4,92,76,61,65,58,55,81,55,31,30.17,30.10,30.02,10,9,5,18,4,25,0.00,1,,92
2011-10-5,95,82,69,66,63,57,82,56,28,30.07,30.00,29.91,10,10,7,23,7,28,0.00,2,,133
2011-10-6,96,82,68,68,63,59,84,57,29,29.98,29.91,29.84,10,10,10,20,7,25,0.00,1,,147
2011-10-7,98,85,72,74,69,63,89,60,31,29.96,29.92,29.85,10,10,1,23,11,28,0.00,1,,145
2011-10-8,93,84,76,74,71,66,87,68,40,29.96,29.89,29.80,10,10,7,25,11,30,0.03,3,Rain,143
2011-10-9,95,84,73,73,69,60,90,70,30,29.90,29.84,29.79,10,10,7,29,8,39,0.00,3,,122
2011-10-10,86,79,72,70,68,64,89,72,48,30.00,29.93,29.88,10,9,3,14,8,18,0.00,5,,31
2011-10-11,90,80,70,70,67,62,91,69,39,29.94,29.88,29.81,10,9,5,13,5,,0.00,2,,68
2011-10-12,96,83,70,72,67,61,89,63,32,29.85,29.78,29.71,10,10,7,15,5,24,0.00,0,,167
2011-10-13,95,81,67,73,63,39,92,61,17,29.94,29.86,29.80,10,9,5,18,6,25,0.00,1,,73
2011-10-14,93,76,59,64,52,46,81,48,20,30.00,29.93,29.86,10,10,1,15,3,16,0.00,0,,74
2011-10-15,91,76,60,65,57,54,81,56,29,30.05,29.98,29.94,10,10,7,15,4,16,0.00,1,,70
2011-10-16,93,80,66,70,63,57,88,60,30,30.07,30.00,29.92,10,10,10,17,4,,0.00,1,,74
2011-10-17,95,80,64,68,62,56,83,56,27,29.98,29.86,29.73,10,10,4,16,3,,0.00,0,,174
2011-10-18,87,78,69,70,51,31,91,49,13,30.07,29.87,29.69,10,10,5,25,10,33,0.00,2,,7
2011-10-19,84,69,54,37,30,23,51,28,11,30.21,30.13,30.07,10,10,5,20,9,24,0.00,0,,356
2011-10-20,89,70,50,56,45,35,64,42,21,30.14,30.07,29.98,10,9,5,17,5,22,0.00,0,,172
2011-10-21,92,76,60,64,60,56,88,60,33,30.11,30.05,30.01,10,10,5,20,8,25,0.00,0,,152
2011-10-22,91,78,64,65,61,56,88,59,30,30.08,30.02,29.94,10,10,5,20,8,23,0.00,1,,157
2011-10-23,94,79,64,63,59,51,85,55,25,30.08,29.98,29.92,10,10,10,18,8,24,0.00,0,,168
2011-10-24,92,77,62,65,60,53,90,61,27,30.17,30.11,30.06,10,10,10,24,5,28,0.00,0,,155
2011-10-25,92,77,62,64,59,51,88,58,25,30.14,30.07,29.97,10,10,7,18,6,23,0.00,1,,163
2011-10-26,92,78,63,66,60,51,92,59,25,30.01,29.90,29.81,10,10,4,20,7,26,0.00,0,,163
2011-10-27,93,78,62,66,61,53,93,60,26,29.88,29.79,29.72,10,9,0,22,8,30,0.00,0,Fog,162
2011-10-28,75,66,57,50,44,40,56,46,30,30.29,30.14,29.97,10,10,10,22,16,29,0.00,3,,353
2011-10-29,75,61,47,46,39,26,75,49,16,30.35,30.24,30.12,10,10,10,12,7,18,0.00,0,,22
2011-10-30,84,66,49,55,50,44,82,58,31,30.16,30.10,30.03,10,9,5,17,4,,0.00,0,,98
2011-10-31,85,70,55,56,53,50,84,58,30,30.21,30.15,30.08,10,10,7,16,2,21,0.00,1,,104